sat.trackr.live / text

‹ back to catalog

STARLINK-31091

NORAD 58629 · 2023-203M

PAYLOAD ACTIVE UNKNOWN

§ Identity

Operator
Country
US
Launch date
2023-12-23
Launch site
AFETR
Launch vehicle
Mass (kg)
RCS (m²)

Purposes: comms

External: N2YO · Heavens-Above · Gunter

§ Orbital elements

Epoch: 2026-05-25T00:37:25.334688Z

Period
94.27 min
Inclination
43.0039°
Eccentricity
0.0001276
Mean motion
15.27584435 rev/d
Perigee alt
482.2 km
Apogee alt
483.9 km
Semi-major
6,861.2 km
B*
3.6448e-6
RAAN
359.6301°
Arg perigee
276.4990°
Mean anomaly
83.5716°
Rev number
13,519

§ Raw data

STARLINK-310911 58629U 23203M   26145.02598767 -.00000162  00000+0  36448-5 0  99912 58629  43.0039 359.6301 0001276 276.4990  83.5716 15.27584435135194

JSON: /api/v1/satellites/58629 · /tle

For live sub-satellite position, see the globe view (requires WebGL).

§ Visibility from observer

Set your observer location to see the next 7 days of passes ≥ 10°. The values pass through the URL so the page stays shareable.

No JS? Fill the form by hand. The geolocation button needs JavaScript.